AirNav   Everest Fuels
 
 1391 users online  

2FA6 Freeflight International Airport
Coleman, Florida, USA

GOING TO COLEMAN?


FAA INFORMATION EFFECTIVE 18 JUNE 2020

Location

FAA Identifier: 2FA6
Lat/Long: 28-48-39.9560N 082-03-55.3080W
28-48.665933N 082-03.921800W
28.8110989,-82.0653633
(estimated)
Elevation: 55 ft. / 17 m (estimated)
Variation: 02W (1985)
Time zone: UTC -4 (UTC -5 during Standard Time)
Zip code: 33521

Airport Operations

Airport use: Private use. Permission required prior to landing
Activation date: 12/1973
Control tower: no
ARTCC: JACKSONVILLE CENTER
FSS: SAINT PETERSBURG FLIGHT SERVICE STATION
Attendance: CONTINUOUS
Wind indicator: yes
Segmented circle: no

Airport Communications

UNICOM: 122.7
WX AWOS-3 at INF (13 nm W): 119.975 (352-560-6012)
WX ASOS at LEE (14 nm E): 134.325 (352-787-1565)

Nearby radio navigation aids

VOR radial/distance  VOR name  Freq  Var
OCFr159/23.6OCALA VORTAC113.7000E

Airport Services

Runway Information

Runway 2/20

Dimensions: 4100 x 100 ft. / 1250 x 30 m
Surface: turf
RUNWAY 2  RUNWAY 20
Traffic pattern: leftleft

Airport Ownership and Management from official FAA records

Ownership: Privately-owned
Owner: FREEFLIGHT INTL INC
PO BOX 600
COLEMAN, FL 33521
Phone 352-748-6629
Manager: FRANK B. ARENAS
FREEFLIGHT INTL INC, PO BOX 600
COLEMAN, FL 33521
Phone 352-748-6629
ADDNL ADS: 1511 TAYLOR AVE COLEMAN, FL 33521 - 0600

Airport Operational Statistics

Aircraft based on the field: 6
Single engine airplanes: 5
Gliders airplanes: 1
    

Additional Remarks

FOR CD CTC JACKSONVILLE APCH AT 904-741-0284.

Instrument Procedures

There are no published instrument procedures at 2FA6.

Some nearby airports with instrument procedures:

KINF - Inverness Airport (13 nm W)
KLEE - Leesburg International Airport (14 nm E)
X35 - Marion County Airport (22 nm NW)
X23 - Umatilla Municipal Airport (23 nm E)
KOCF - Ocala International Airport-Jim Taylor Field (23 nm N)
 
Loc | Ops | Rwys | IFR | FBO | Links
Com | Nav | Svcs | Stats | Notes


 
Area around 2FA6 (Freeflight International Airport)
 
Road maps at: MapQuest Bing Google
 
Aerial photo
WARNING: Photo may not be current or correct
Aerial photo of 2FA6 (Freeflight International Airport)
Do you have a better or more recent aerial photo of Freeflight International Airport that you would like to share? If so, please send us your photo.

 
Sectional chart

 
Airport distance calculator
Flying to Freeflight International Airport? Find the distance to fly.

From to 2FA6

Sunrise and sunset
Times for 14-Jul-2020
 Local
(UTC-4)
 Zulu
(UTC)
Morning civil twilight06:1410:14
Sunrise06:4110:41
Sunset20:2700:27
Evening civil twilight20:5400:54

Current date and time
Zulu (UTC)  14-Jul-2020 20:36:17
Local (UTC-4)  14-Jul-2020 16:36:17
 
METAR
KLEE 
13nm E 
141953Z 23007KT 200V260 10SM FEW055 33/25 A3002 RMK AO2 LTG DSNT SW AND W SLP163 T03330250
KINF 
13nm W 
142015Z AUTO 24006KT 7SM VCTS SCT042 SCT055 SCT080 33/25 A3002 RMK AO2
KOCF 
23nm N 
141951Z 26009KT 10SM CLR 34/23 A3000 RMK AO2 LTG DSNT S AND NW SLP159 T03390233 $
TAF
KLEE 
13nm E 
141748Z 1418/1518 27007KT P6SM VCTS SCT035CB SCT250 TEMPO 1418/1419 4SM TSRA SCT030CB FM142000 26006KT P6SM VCSH SCT040 SCT250 FM142300 26005KT P6SM FEW050 SCT200 FM151400 30005KT P6SM SCT035 SCT250 FM151700 VRB05KT P6SM SCT035 SCT250
NOTAMs
Click for the latest NOTAMs
NOTAMs are issued by the DoD/FAA and will open in a separate window not controlled by AirNav.

 

 
 

Aviation Businesses, Services, and Facilities

  
 Business Name 
 
 Contact 
 
 Services / Description 
 
Distance
 
Comments
  
FreeFlight Airport 352-748-6629
[web site]
[email]
Airport management, Aircraft parking (ramp or tiedown), Hangars, Restrooms, Showers, Camping on site, Residence

More info about FreeFlight Airport
on airport  
   write
 

Would you like to see your business listed on this page?

 If your business provides an interesting product or service to pilots, flight crews, aircraft, or users of the Freeflight International Airport, you should consider listing it here.  To start the listing process, click on the button below
 
Add a business
 

Other Pages about Freeflight International Airport

Update a link
 
Copyright © AirNav, LLC. All rights reserved. Privacy Policy  Contact